Flag for South Korea Weather past 2 weeks in Incheon, South Korea

Now
72 °F

Sunny.


Feels Like: 77 °F
Forecast: 67 / 73 °F
Wind: 12 mph from Southeast

Location: Incheon International Airport

Current Time: Sep 23, 2014 at 9:18:08 AM

Latest Report: Sep 23, 2014 at 9:00 AM


Visibility: 10 mi

Pressure: 30.09 "Hg

Humidity: 50%

Dew point: 52 °F

Location of IncheonLocation

Historic Weather in Incheon — Graph

°F

Incheon temperature yesterday

Maximum temperature yesterday: 79 °F (at 2:30 PM)
Minimum temperature yesterday: 61 °F (at 3:00 AM)
Average temperature yesterday: 69 °F

Past Weeks' High & Low Weather Summary

 TemperatureHumidityPressure
High81 °F (Sep 8, 12:00 PM)89% (Sep 8, 9:00 PM)30.12 "Hg (Sep 8, 9:00 PM)
Low59 °F (Sep 19, 4:30 AM)16% (Sep 16, 4:00 PM)29.71 "Hg (Sep 8, 2:00 PM)
Average71 °F61%29.95 "Hg
* Reported Sep 8 8:00 AM — Sep 23 8:00 AM, Incheon, Weather by CustomWeather, © 2014

Note: Actual official high and low records may vary slightly from our data, if they occured in-between our weather recording intervals... More about our weather records

Advertising

Incheon weather history for previous 24 hours

 ConditionsComfort  
Time TempWeatherWind HumidityBarometerVisibility
8:00 AM
Sep 23
70 °FSunny.8 mph57%30.09 "Hg10 mi
7:30 AM68 °FSunny.7 mph60%30.09 "Hg10 mi
7:00 AM68 °FClear.7 mph64%30.09 "Hg10 mi
6:30 AM66 °FClear.7 mph64%30.09 "Hg10 mi
6:00 AM66 °FClear.5 mph68%30.09 "Hg10 mi
5:30 AM66 °FClear.6 mph68%30.09 "Hg10 mi
5:00 AM66 °FClear.7 mph68%30.09 "Hg10 mi
4:30 AM66 °FClear.8 mph68%30.09 "Hg10 mi
4:00 AM68 °FClear.9 mph64%30.07 "Hg10 mi
3:30 AM68 °FClear.9 mph64%30.09 "Hg10 mi
3:00 AM68 °FClear.9 mph64%30.07 "Hg10 mi
2:30 AM66 °FClear.6 mph68%30.07 "Hg10 mi
2:00 AM64 °FClear.7 mph73%30.09 "Hg10 mi
1:30 AM64 °FClear.7 mph68%30.07 "Hg10 mi
1:00 AM64 °FClear.6 mph68%30.07 "Hg10 mi
12:30 AM66 °FClear.7 mph64%30.07 "Hg10 mi
12:00 AM66 °FClear.6 mph64%30.07 "Hg10 mi
11:30 PM
Sep 22
66 °FClear.6 mph68%30.07 "Hg10 mi
11:00 PM66 °FClear.6 mph73%30.07 "Hg10 mi
10:30 PM66 °FClear.6 mph68%30.07 "Hg10 mi
10:00 PM70 °FClear.5 mph57%30.07 "Hg10 mi
9:30 PM70 °FClear.6 mph57%30.07 "Hg10 mi
9:00 PM70 °FClear.6 mph60%30.07 "Hg10 mi
8:30 PM70 °FClear.6 mph60%30.07 "Hg10 mi
8:00 PM72 °FClear.7 mph57%30.07 "Hg10 mi
7:30 PM73 °FSunny.5 mph53%30.04 "Hg10 mi
7:00 PM72 °FSunny.3 mph65%30.04 "Hg10 mi
6:30 PM75 °FPassing clouds.5 mph50%30.04 "HgN/A
6:00 PM75 °FSunny.7 mph57%30.04 "Hg10 mi
5:30 PM77 °FSunny.6 mph47%30.04 "Hg10 mi
5:00 PM77 °FSunny.7 mph47%30.01 "Hg10 mi
4:30 PM79 °FSunny.8 mph34%30.01 "Hg10 mi
4:00 PM79 °FSunny.9 mph39%30.04 "Hg10 mi
3:30 PM79 °FSunny.9 mph37%30.04 "Hg10 mi
3:00 PM79 °FSunny.10 mph37%30.04 "Hg10 mi
2:30 PM79 °FPassing clouds.9 mph37%30.04 "HgN/A
2:00 PM77 °FSunny.8 mph39%30.07 "Hg10 mi
1:30 PM77 °FSunny.8 mph42%30.07 "Hg10 mi
1:00 PM77 °FSunny.9 mph42%30.09 "Hg10 mi
12:30 PM75 °FPassing clouds.8 mph44%30.09 "HgN/A
12:00 PM75 °FPassing clouds.8 mph47%30.09 "Hg4 mi
11:30 AM73 °FClear.10 mph53%30.12 "Hg4 mi
11:00 AM73 °FClear.9 mph53%30.12 "Hg4 mi
10:30 AM73 °FClear.8 mph50%30.12 "Hg4 mi
10:00 AM72 °FClear.7 mph57%30.12 "Hg4 mi
9:00 AM68 °FClear.8 mph69%30.12 "Hg4 mi
Weather by CustomWeather, © 2014

See weather overviewHow to use our weather pages